This is the latest recevied weather packets stored in our database for station/object EB2EMZ-3. If no packets are shown the sender has not sent any weather packets the latest 1 day(s).
| Time | Temp. | Humidity | Pressure | Rain* | Wind** | Luminosity | Snow |
|---|---|---|---|---|---|---|---|
| 1778017773 | 15.56° C | 75% | 1011.1 hPa | 0 mm | 0 m/s | - | - |
| 1778017473 | 15.56° C | 76% | 1011.5 hPa | 0 mm | 0.45 m/s, 22° | - | - |
| 1778017173 | 15.56° C | 78% | 1011.5 hPa | 0 mm | 1.79 m/s, 0° | - | - |
| 1778016873 | 15.56° C | 78% | 1011.6 hPa | 0 mm | 1.79 m/s, 0° | - | - |
| 1778016573 | 15.56° C | 80% | 1011.5 hPa | 0 mm | 0 m/s | - | - |
| 1778016273 | 15.56° C | 80% | 1011.5 hPa | 0 mm | 1.34 m/s, 22° | - | - |
| 1778015973 | 15.56° C | 80% | 1011.7 hPa | 0 mm | 0 m/s | - | - |
| 1778015673 | 15.56° C | 80% | 1011.6 hPa | 0 mm | 0.45 m/s, 337° | - | - |
| 1778015373 | 16.11° C | 79% | 1011.7 hPa | 0 mm | 2.24 m/s, 0° | - | - |
| 1778015073 | 16.11° C | 78% | 1011.5 hPa | 0 mm | 2.24 m/s, 0° | - | - |
| 1778014773 | 16.67° C | 78% | 1011.6 hPa | 0 mm | 1.34 m/s, 0° | - | - |
| 1778014473 | 16.67° C | 78% | 1011.3 hPa | 0 mm | 0 m/s | - | - |
| 1778014173 | 16.67° C | 78% | 1011.3 hPa | 0 mm | 0 m/s | - | - |
| 1778013873 | 16.67° C | 77% | 1011.2 hPa | 0 mm | 1.34 m/s, 180° | - | - |
| 1778013573 | 16.67° C | 77% | 1011 hPa | 0 mm | 1.34 m/s, 0° | - | - |
| 1778013273 | 16.67° C | 78% | 1010.9 hPa | 0 mm | 3.13 m/s, 247° | - | - |
| 1778012973 | 16.67° C | 78% | 1010.8 hPa | 0 mm | 3.13 m/s, 247° | - | - |
| 1778012673 | 16.67° C | 78% | 1010.7 hPa | 0 mm | 0 m/s | - | - |
| 1778012373 | 16.67° C | 78% | 1010.6 hPa | 0 mm | 0 m/s | - | - |
| 1778012073 | 16.67° C | 77% | 1010.7 hPa | 0 mm | 0.89 m/s, 225° | - | - |
| 1778011773 | 16.67° C | 77% | 1010.6 hPa | 0 mm | 1.79 m/s, 247° | - | - |
| 1778011473 | 16.67° C | 77% | 1010.5 hPa | 0 mm | 1.34 m/s, 247° | - | - |
| 1778011173 | 16.67° C | 76% | 1010.6 hPa | 0 mm | 2.24 m/s, 225° | - | - |
| 1778010873 | 16.67° C | 76% | 1010.5 hPa | 0 mm | 2.24 m/s, 225° | - | - |
| 1778010573 | 16.67° C | 76% | 1010.5 hPa | 0 mm | 1.79 m/s, 247° | - | - |
* Rain latest hour (hover to see other rain measurements)
** Current wind speed in m/s (hover to see current wind gust speed)